{"data":{"norad_id":56816,"intl_designator":"2023-078BB","name":"STARLINK-6067","alt_names":[],"object_type":"PAYLOAD","status":"ACTIVE","operator":null,"country":"US","launch_date":"2023-05-31","launch_site_code":"AFWTR","launch_vehicle":null,"mission":null,"orbit_class":"UNKNOWN","rcs_meters":null,"size_class":null,"mass_kg":null,"dimensions":null,"purposes":["comms"],"wikipedia_slug":null,"has_3d_model":false,"image_url":null,"decayed_at":null,"tle_current":{"epoch":"2026-05-25T02:21:18.375840Z","epoch_age_seconds":73495,"freshness":"FRESH","line1":"1 56816U 23078BB  26145.09812935 -.00000318  00000+0 -18850-4 0  9990","line2":"2 56816  69.9987 131.6063 0003814 262.8938  97.1787 14.98332744164623","mean_motion":14.98332744,"eccentricity":0.0003814,"inclination_deg":69.9987,"raan_deg":131.6063,"arg_perigee_deg":262.8938,"mean_anomaly_deg":97.1787,"bstar":-1.885e-5,"rev_number":16462,"period_min":96.106823118323,"perigee_km":569.39660503151,"apogee_km":574.69820569593,"semimajor_km":6950.1844053637,"source":"CELESTRAK","updated_at":"2026-05-25T13:38:18.161427Z"}}}